Home   Weather   San Bernardino   Past weeks

Flag for USA Past Weather in San Bernardino, California, USA — Yesterday and Last 2 Weeks

Now
52 °F

Partly sunny.


Feels Like: 52 °F
Forecast: 44 / 57 °F
Wind: No wind

Location: Riverside Municipal Airport

Current Time: Feb 22, 2017 at 8:17:47 am

Latest Report: Feb 22, 2017 at 6:53 am


Visibility: 7 mi

Pressure: 30.10 "Hg

Humidity: 100%

Dew Point: 52 °F

Location of San BernardinoLocation

Past Weather in San Bernardino — Graph

°F

San Bernardino Temperature Yesterday

Maximum temperature yesterday: 68 °F (at 2:53 pm)
Minimum temperature yesterday: 56 °F (at 6:53 am)
Average temperature yesterday: 60 °F

High & Low Weather Summary for the Past Weeks

 TemperatureHumidityPressure
High79 °F (Feb 15, 12:53 pm)100% (Feb 7, 6:53 am)30.30 "Hg (Feb 7, 6:53 am)
Low44 °F (Feb 15, 5:53 am)18% (Feb 15, 12:53 pm)29.46 "Hg (Feb 17, 5:53 pm)
Average58 °F82%29.99 "Hg
* Reported Feb 7 6:53 am — Feb 22 6:53 am, San Bernardino, Weather by CustomWeather, © 2017

Note: Actual official high and low records may vary slightly from our data, if they occured in-between our weather recording intervals... More about our weather records

Advertising

San Bernardino Weather History for the Previous 24 Hours

Scroll right to see more
 ConditionsComfort  
Time TempWeatherWind HumidityBarometerVisibility
6:53 am
Wed, Feb 22
52 °FPartly sunny.No wind100%30.10 "Hg7 mi
6:23 am51 °FPassing clouds.3 mph100%30.13 "Hg7 mi
5:53 am52 °FOvercast.3 mph100%30.10 "Hg7 mi
5:30 am52 °FFog.5 mph100%30.13 "Hg6 mi
4:53 am52 °FLow clouds.No wind97%30.10 "Hg10 mi
4:33 am50 °FMostly cloudy.No wind96%30.13 "Hg10 mi
3:53 am51 °FPassing clouds.No wind92%30.10 "Hg10 mi
2:53 am53 °FPassing clouds.No wind89%30.11 "Hg10 mi
1:53 am54 °FClear.3 mph86%30.14 "Hg10 mi
12:53 am54 °FPassing clouds.No wind90%30.15 "Hg10 mi
11:53 pm
Tue, Feb 21
56 °FClear.No wind84%30.16 "Hg10 mi
10:53 pm56 °FPassing clouds.No wind81%30.17 "Hg10 mi
9:53 pm58 °FClear.No wind78%30.18 "Hg10 mi
8:53 pm59 °FPassing clouds.No wind78%30.18 "Hg10 mi
7:53 pm60 °FOvercast.6 mph78%30.18 "Hg10 mi
6:53 pm60 °FOvercast.6 mph69%30.18 "Hg10 mi
5:53 pm62 °FOvercast.6 mph62%30.18 "Hg10 mi
4:53 pm65 °FMostly cloudy.6 mph49%30.18 "Hg10 mi
3:53 pm67 °FOvercast.6 mph51%30.18 "Hg10 mi
2:53 pm68 °FScattered clouds.5 mph47%30.19 "Hg10 mi
1:53 pm67 °FPartly sunny.6 mph57%30.21 "Hg10 mi
12:53 pm67 °FOvercast.No wind61%30.23 "Hg10 mi
11:53 am65 °FMostly cloudy.No wind76%30.27 "Hg7 mi
10:53 am64 °FPartly sunny.No wind75%30.30 "Hg8 mi
9:53 am61 °FOvercast.8 mph81%30.28 "Hg7 mi
8:53 am60 °FOvercast.No wind83%30.30 "Hg7 mi
Weather by CustomWeather, © 2017

See weather overviewHow to use our weather pages